| time (UTC) | temp F | wind direction | speed MPH | gust MPH | rain 1hr in | rain 24hr in | rain mn in | humidity % | barometer mb |
| 20260506153112 | 83 | 200 | 2.0 | 10.0 | 0.00 | 0.00 | 0.00 | 66 | 1016.4 |
| 20260506151602 | 82 | 208 | 2.0 | 10.0 | 0.00 | 0.00 | 0.00 | 66 | 1016.6 |
| 20260506150100 | 81 | 116 | 4.0 | 11.0 | 0.00 | 0.00 | 0.00 | 68 | 1016.5 |
| 20260506144557 | 81 | 296 | 4.0 | 9.0 | 0.00 | 0.00 | 0.00 | 69 | 1016.3 |
| 20260506143053 | 79 | 215 | 2.0 | 11.0 | 0.00 | 0.00 | 0.00 | 70 | 1016.2 |
| 20260506141553 | 79 | 205 | 3.0 | 10.0 | 0.00 | 0.00 | 0.00 | 71 | 1016.3 |
| 20260506140054 | 78 | 198 | 3.0 | 11.0 | 0.00 | 0.00 | 0.00 | 74 | 1016.3 |
| 20260506134557 | 77 | 240 | 1.0 | 11.0 | 0.00 | 0.00 | 0.00 | 76 | 1016.5 |
| 20260506133054 | 76 | 238 | 1.0 | 9.0 | 0.00 | 0.00 | 0.00 | 78 | 1016.4 |
| 20260506131554 | 76 | 191 | 1.0 | 7.0 | 0.00 | 0.00 | 0.00 | 78 | 1016.4 |
| 20260506130050 | 74 | 243 | 1.0 | 8.0 | 0.00 | 0.00 | 0.00 | 80 | 1016.3 |
| 20260506124554 | 72 | 158 | 3.0 | 9.0 | 0.00 | 0.00 | 0.00 | 82 | 1016.1 |
| 20260506123054 | 70 | 206 | 1.0 | 5.0 | 0.00 | 0.00 | 0.00 | 85 | 1016.1 |
| 20260506121555 | 68 | 213 | 1.0 | 6.0 | 0.00 | 0.00 | 0.00 | 88 | 1015.9 |
| 20260506120059 | 66 | 211 | 2.0 | 6.0 | 0.00 | 0.00 | 0.00 | 90 | 1015.8 |
| 20260506114558 | 65 | 0 | 1.0 | 4.0 | 0.00 | 0.00 | 0.00 | 92 | 1015.6 |
| 20260506113056 | 63 | 210 | 0.0 | 2.0 | 0.00 | 0.00 | 0.00 | 92 | 1015.6 |
| 20260506111551 | 63 | 0 | 0.0 | 0.0 | 0.00 | 0.00 | 0.00 | 92 | 1015.4 |
| 20260506110054 | 62 | 0 | 0.0 | 0.0 | 0.00 | 0.00 | 0.00 | 91 | 1015.2 |
| 20260506104558 | 63 | 0 | 0.0 | 0.0 | 0.00 | 0.00 | 0.00 | 91 | 1015.2 |
| 20260506103056 | 63 | 0 | 0.0 | 1.0 | 0.00 | 0.00 | 0.00 | 91 | 1015.0 |
| 20260506101555 | 63 | 0 | 0.0 | 0.0 | 0.00 | 0.00 | 0.00 | 90 | 1015.1 |
| 20260506100055 | 62 | 0 | 0.0 | 0.0 | 0.00 | 0.00 | 0.00 | 89 | 1014.9 |
| 20260506094552 | 63 | 0 | 0.0 | 0.0 | 0.00 | 0.00 | 0.00 | 89 | 1015.2 |
| 20260506093059 | 63 | 0 | 0.0 | 0.0 | 0.00 | 0.00 | 0.00 | 89 | 1015.0 |
| 20260506091600 | 63 | 0 | 0.0 | 0.0 | 0.00 | 0.00 | 0.00 | 88 | 1014.9 |
| 20260506090059 | 63 | 0 | 0.0 | 0.0 | 0.00 | 0.00 | 0.00 | 88 | 1014.9 |
| 20260506084606 | 63 | 0 | 0.0 | 2.0 | 0.00 | 0.00 | 0.00 | 87 | 1014.6 |
| 20260506083059 | 64 | 176 | 0.0 | 1.0 | 0.00 | 0.00 | 0.00 | 87 | 1014.8 |
| 20260506081602 | 64 | 0 | 0.0 | 0.0 | 0.00 | 0.00 | 0.00 | 86 | 1014.9 |
| 20260506080107 | 64 | 0 | 0.0 | 1.0 | 0.00 | 0.00 | 0.00 | 86 | 1014.9 |
| 20260506073100 | 64 | 0 | 0.0 | 0.0 | 0.00 | 0.00 | 0.00 | 86 | 1014.5 |
| 20260506071605 | 64 | 0 | 0.0 | 0.0 | 0.00 | 0.00 | 0.00 | 86 | 1014.8 |
| 20260506070104 | 64 | 0 | 0.0 | 1.0 | 0.00 | 0.00 | 0.00 | 87 | 1014.8 |
| 20260506061556 | 64 | 0 | 0.0 | 0.0 | 0.00 | 0.00 | 0.00 | 87 | 1015.4 |
| 20260506050105 | 65 | 0 | 0.0 | 0.0 | 0.00 | 0.00 | 0.00 | 84 | 1015.7 |
| 20260506044554 | 66 | 0 | 0.0 | 0.0 | 0.00 | 0.00 | 0.00 | 83 | 1015.7 |
| 20260506043051 | 66 | 0 | 0.0 | 0.0 | 0.00 | 0.00 | 0.00 | 82 | 1015.6 |
| 20260506041553 | 67 | 0 | 0.0 | 0.0 | 0.00 | 0.00 | 0.00 | 81 | 1015.8 |
| 20260506040057 | 67 | 0 | 0.0 | 0.0 | 0.00 | 0.00 | 0.00 | 80 | 1015.9 |
| 20260506034614 | 68 | 0 | 0.0 | 0.0 | 0.00 | 0.00 | 0.00 | 78 | 1015.8 |
| 20260506033054 | 69 | 0 | 0.0 | 0.0 | 0.00 | 0.00 | 0.00 | 77 | 1015.9 |
| 20260506031607 | 70 | 0 | 0.0 | 2.0 | 0.00 | 0.00 | 0.00 | 76 | 1015.8 |
| 20260506030058 | 70 | 0 | 0.0 | 2.0 | 0.00 | 0.00 | 0.00 | 75 | 1015.5 |
| 20260506024618 | 71 | 0 | 0.0 | 2.0 | 0.00 | 0.00 | 0.00 | 74 | 1015.2 |
| 20260506023054 | 71 | 0 | 1.0 | 4.0 | 0.00 | 0.00 | 0.00 | 73 | 1015.2 |
| 20260506021554 | 71 | 68 | 1.0 | 4.0 | 0.00 | 0.00 | 0.00 | 72 | 1015.0 |
| 20260506020058 | 71 | 96 | 1.0 | 6.0 | 0.00 | 0.00 | 0.00 | 71 | 1015.0 |
| 20260506014553 | 71 | 0 | 1.0 | 4.0 | 0.00 | 0.00 | 0.00 | 71 | 1015.1 |
| 20260506013103 | 71 | 93 | 0.0 | 4.0 | 0.00 | 0.00 | 0.00 | 70 | 1015.0 |
| 20260506011604 | 71 | 93 | 1.0 | 3.0 | 0.00 | 0.00 | 0.00 | 70 | 1014.9 |
| 20260506010057 | 71 | 87 | 1.0 | 3.0 | 0.00 | 0.00 | 0.00 | 70 | 1014.8 |
| 20260506004556 | 72 | 92 | 2.0 | 8.0 | 0.00 | 0.00 | 0.00 | 69 | 1014.9 |
| 20260506003052 | 72 | 0 | 1.0 | 4.0 | 0.00 | 0.00 | 0.00 | 70 | 1014.9 |
| 20260506001555 | 72 | 105 | 1.0 | 6.0 | 0.00 | 0.00 | 0.00 | 70 | 1014.7 |
| 20260506000052 | 73 | 0 | 1.0 | 9.0 | 0.00 | 0.00 | 0.00 | 69 | 1014.5 |
| 20260505234556 | 73 | 83 | 3.0 | 9.0 | 0.00 | 0.00 | 0.00 | 68 | 1014.5 |
| 20260505233051 | 73 | 109 | 4.0 | 11.0 | 0.00 | 0.00 | 0.00 | 66 | 1014.6 |
| 20260505231554 | 74 | 74 | 2.0 | 9.0 | 0.00 | 0.00 | 0.00 | 68 | 1014.5 |
| 20260505230105 | 74 | 84 | 4.0 | 11.0 | 0.00 | 0.00 | 0.00 | 67 | 1014.6 |
| 20260505224553 | 74 | 87 | 3.0 | 11.0 | 0.00 | 0.00 | 0.00 | 67 | 1014.7 |
| 20260505223109 | 75 | 96 | 3.0 | 13.0 | 0.00 | 0.00 | 0.00 | 66 | 1014.6 |
| 20260505221552 | 75 | 136 | 2.0 | 13.0 | 0.00 | 0.00 | 0.00 | 67 | 1014.7 |
| 20260505220112 | 76 | 114 | 3.0 | 13.0 | 0.00 | 0.00 | 0.00 | 65 | 1014.7 |
| 20260505214556 | 76 | 128 | 3.0 | 8.0 | 0.00 | 0.00 | 0.00 | 64 | 1014.5 |
| 20260505213059 | 76 | 114 | 4.0 | 11.0 | 0.00 | 0.00 | 0.00 | 62 | 1014.7 |
| 20260505211556 | 77 | 64 | 3.0 | 11.0 | 0.00 | 0.00 | 0.00 | 60 | 1014.5 |
| 20260505210056 | 76 | 74 | 4.0 | 10.0 | 0.00 | 0.00 | 0.00 | 61 | 1014.8 |
| 20260505204601 | 77 | 26 | 3.0 | 14.0 | 0.00 | 0.00 | 0.00 | 59 | 1014.9 |
| 20260505203102 | 77 | 76 | 5.0 | 11.0 | 0.00 | 0.00 | 0.00 | 58 | 1014.9 |
| 20260505201553 | 77 | 98 | 3.0 | 13.0 | 0.00 | 0.00 | 0.00 | 60 | 1015.4 |
| 20260505200051 | 77 | 115 | 4.0 | 13.0 | 0.00 | 0.00 | 0.00 | 61 | 1015.3 |
| 20260505194604 | 78 | 87 | 4.0 | 13.0 | 0.00 | 0.00 | 0.00 | 59 | 1015.6 |
| 20260505193052 | 79 | 182 | 3.0 | 12.0 | 0.00 | 0.00 | 0.00 | 57 | 1015.6 |
| 20260505191553 | 79 | 124 | 2.0 | 12.0 | 0.00 | 0.00 | 0.00 | 58 | 1015.6 |
| 20260505190055 | 78 | 36 | 3.0 | 13.0 | 0.00 | 0.00 | 0.00 | 57 | 1015.8 |
| 20260505184552 | 79 | 81 | 4.0 | 11.0 | 0.00 | 0.00 | 0.00 | 58 | 1016.1 |
| 20260505183101 | 79 | 51 | 1.0 | 11.0 | 0.00 | 0.00 | 0.00 | 59 | 1016.1 |
| 20260505181556 | 78 | 96 | 2.0 | 8.0 | 0.00 | 0.00 | 0.00 | 58 | 1016.1 |
| 20260505180059 | 79 | 61 | 2.0 | 10.0 | 0.00 | 0.00 | 0.00 | 61 | 1016.2 |
| 20260505174552 | 78 | 100 | 4.0 | 12.0 | 0.00 | 0.00 | 0.00 | 61 | 1016.5 |
| 20260505173052 | 78 | 88 | 4.0 | 11.0 | 0.00 | 0.00 | 0.00 | 60 | 1016.4 |
| 20260505171556 | 78 | 90 | 2.0 | 9.0 | 0.00 | 0.00 | 0.00 | 60 | 1016.4 |
| 20260505170056 | 78 | 98 | 5.0 | 11.0 | 0.00 | 0.00 | 0.00 | 59 | 1016.7 |
| 20260505164601 | 79 | 157 | 2.0 | 8.0 | 0.00 | 0.00 | 0.00 | 59 | 1016.9 |
| 20260505163101 | 79 | 240 | 2.0 | 8.0 | 0.00 | 0.00 | 0.00 | 58 | 1016.8 |
| 20260505161558 | 78 | 46 | 3.0 | 9.0 | 0.00 | 0.00 | 0.00 | 61 | 1017.0 |